User: anonymous   Login
Location: Rounton
(54.4000°N, 1.3500°W)
Time: 18:21:06
(UTC+00:00)
Language:

SR - Orbit

View from above orbital plane
View from above orbital plane
View from above satellite
View from above satellite

Ground track
Ground track

The orbit data is extracted from the following two-line orbital elements,

1 00046U 60007B   21333.63088747  .00000104  00000-0  43945-4 0  9992
2 00046  66.6918  53.7862 0202452  96.1738 266.2475 14.49475640215945
Epoch (UTC): 29 November 2021 15:08:28
Eccentricity: 0.0202452
inclination: 66.6918°
perigee height: 583 km
apogee height: 871 km
right ascension of ascending node: 53.7862°
argument of perigee: 96.1738°
revolutions per day: 14.49475640
mean anomaly at epoch: 266.2475°
orbit number at epoch: 21594

The dashed part of the orbit path shows where the satellite is in the earth's shadow,  

DLR